Dean International
Flight School

Career Spotlight

Mika

Mika

Congratulations to Mika from Khazakstan. She recently sent us this photo of her flying an Airbus airliner.

More...
Mika's Success Story
close

Congratulations to Mika from Khazakstan. She recently sent us this photo of her flying an Airbus airliner.

Mario

Mario

My dreams could not have been realized if I wouldn't have been part of the Dean International family.

More...
Mario's Success Story
close

"My dreams could not have been realized if I wouldn't have been part of the Dean International family. Thank you Robert, thanks to all my co-workers, and thanks to all of my students!"

Fernando

Fernando

I am now working as a First Officer at TACA and am enjoying every moment of it.

More...
Fernando's Success Story
close

"Will never forget my time of flight training at Dean International. I am now working as a First Officer at TACA and am enjoying every moment of it."

Alvaro

Alvaro

Because of the flight time I was able to built while instructing, I got the experience needed to apply to an airline in Colombia.

More...
Alvaro's Success Story
close

Dean alumnus Alvaro Londoño currently flies with Tampa Cargo. He says of his experience at Dean: "I want to take this opportunity to thank you for giving me the chance to build my experience and expand my knowledge in Dean International. Because of the flight time I was able to built flight instructing, I got the experience needed to apply to an airline in Colombia."

Ralph

Ralph

Every Aruban student of Dean International has made it into Tiara Air Aruba, that is very nice.

More...
Ralph's Success Story
close

"Next to me is my Co-Pilot, Elison. This picture was taken on our first flight together, which was almost exactly 5 years after I finished at Dean International. [...] Every Aruban student of Dean International has made it into Tiara Air Aruba. [...] The future looks bright here in Aruba."

Rohaan

Rohaan

The [..] staff will all work diligently to help you finish your certificates as safely and efficiently as possible.

More...
Rohaan's Success Story
close

After receiving very hard times from other flight schools [...], I came to Dean International where Robert Dean personally sat down with me and gave me a financial and chronological look into how much remained to finish my private pilot certificate. Through his hard efforts as an instructor and mentor, I was able to finish my private pilot certificate within one week.

Welcome to Dean International

In over two decades, Dean International has educated over 7,000 pilots from all over the world, including over 1,000 students from India alone. By offering a great training experience, a friendly service staff, an ample variety of aircraft, and by improving constantly, we have become one of the largest, most prestigious FAA 141-approved flight schools in North America. Located in Miami, Florida, USA, our flight school offers an ideal location for year-round, "learn to fly" weather, flight training. Dean International is not only well-equipped to provide services to professional trainees but also caters to General Aviation renters. Visit or contact our headquarters at Kendall-Tamiami Executive Airport located in Miami, FL today to learn more about us, or simply read more about our programs if you are an international student interested in joining our school.

Local Airport Information
TAF FOR KTMB (Issued: Sun, December 21st 2014 2:27 AM UTC)
TAF
      AMD KTMB 210224Z 2102/2124 VRB03KT P6SM SCT250
      FM211400 14008KT P6SM SCT035 SCT250
     
METAR FOR KTMB (Issued: Sun, December 21st 2014 4:53 AM UTC):
KTMB 210453Z 00000KT 10SM CLR 17/17 A3009 RMK AO2 SLP189 T01720167 402610133

This weather information is provided by the National Weather Service.
It is automatically refreshed every three minutes.
TAF FOR KHST (Issued: Sun, December 21st 2014 12:09 AM UTC)
TAF TAF KHST 2100/2206 13006KT 9999 SCT050 BKN250 QNH3002INS TX26/2120Z TN15/2111Z
     
METAR FOR KHST (Issued: Sun, December 21st 2014 4:58 AM UTC):
KHST 210458Z AUTO 00000KT 10SM CLR 17/17 A3008 RMK AO2 SLP189 T01740165 402610141 $

This weather information is provided by the National Weather Service.
It is automatically refreshed every three minutes.
TAF FOR KOPF (Issued: Sun, December 21st 2014 2:27 AM UTC)
TAF
      AMD KOPF 210224Z 2102/2124 VRB02KT P6SM SCT250
      FM211400 13008KT P6SM SCT035 SCT250
     
METAR FOR KOPF (Issued: Sun, December 21st 2014 4:53 AM UTC):
KOPF 210453Z AUTO 00000KT 10SM CLR 17/16 A3009 RMK AO2 SLP190 T01670161 402670133

This weather information is provided by the National Weather Service.
It is automatically refreshed every three minutes.
TAF FOR KMIA (Issued: Sun, December 21st 2014 2:30 AM UTC)
TAF
      AMD KMIA 210224Z 2102/2124 VRB03KT P6SM SCT250
      FM211400 13008KT P6SM SCT035 SCT250
     
METAR FOR KMIA (Issued: Sun, December 21st 2014 4:53 AM UTC):
KMIA 210453Z 00000KT 10SM FEW010 FEW030 SCT250 20/17 A3009 RMK AO2 SLP189 T02000172 402610167

This weather information is provided by the National Weather Service.
It is automatically refreshed every three minutes.
Design by Ariel Llizo
© Dean International Inc. 2012